Location: Newark
(52.2090°N, 4.1550°W)
Time: 15:00:51
(UTC+00:00)

Explorer 7 - Pass Details

Date: 29 September 2019
Orbit: 485 x 680 km, 50.3° (Epoch: 17 October)

Event Time Altitude Azimuth Distance (km) Brightness Sun altitude
Rises 00:50:56 0° 281° (W) 2,882 - -39.2°
Reaches altitude 10° 00:53:19 10° 273° (W) 2,006 - -39.1°
Maximum altitude 00:57:34 37° 207° (SSW) 1,008 - -38.9°
Drops below altitude 10° 01:02:00 10° 140° (SE) 2,086 - -38.7°
Sets 01:04:31 0° 132° (SE) 3,012 - -38.6°
